Simultaneous Nadir Overpasses (SNOs) Predictions

Prediction of SNOs between NOAA-20 and NOAA-19 Satellite Orbit:

Table of predicted SNOs for the next 14.0 days since TLE Epoch: 3/1/2019
Index Date (NOAA-20) Time (NOAA-20) Lat,Lon (NOAA-20) SZA (NOAA-20 ) Date (NOAA-19) Time (NOAA-19) Lat,Lon (NOAA-19) SZA (NOAA-19 ) Distance(km) Time Diff (sec)
1 03/08/2019 15:48:32 -80.19, 81.92 92.33 03/08/2019 15:47:30 -80.20, 81.85 92.29 2.02 62
2 03/08/2019 16:39:18 80.21,-111.00 87.70 03/08/2019 16:38:28 80.19,-111.14 87.72 3.53 50
3 03/08/2019 17:30:03 -80.22, 56.21 92.30 03/08/2019 17:29:31 -80.20, 56.32 92.31 2.76 32
4 03/08/2019 18:20:48 80.21,-136.40 87.67 03/08/2019 18:20:28 80.20,-136.33 87.67 1.29 20
5 03/08/2019 19:11:33 -80.22, 30.82 92.33 03/08/2019 19:11:32 -80.20, 30.80 92.34 2.21 1
6 03/08/2019 20:02:18 80.21,-161.79 87.65 03/08/2019 20:02:29 80.20,-161.86 87.65 1.47 11
7 03/08/2019 20:53:02 -80.22, 5.42 92.35 03/08/2019 20:53:31 -80.22, 5.59 92.39 3.22 29
8 03/08/2019 21:43:47 80.21, 172.81 87.63 03/08/2019 21:44:28 80.22, 172.94 87.60 2.76 41
9 03/08/2019 22:34:32 -80.22, -19.97 92.38 03/08/2019 22:35:32 -80.22, -19.94 92.41 0.91 60




NCC Satellite Simultaneous Nadir Overpasses (SNOs) Prediction Service
